Regional Weather Roundup
Issued by NWS Cleveland, OH

Home | Current Version | Previous Version | Graphics & Text | Print | Product List | Glossary On
Versions: 1 2 3 4 5 6 7 8 9 10 11 12 13 14 15 16 17 18 19 20 21 22 23 24 25 26 27 28 29 30 31 32 33 34 35 36 37 38 39 40 41 42 43 44 45 46 47 48 49 50
000
ASUS41 KCLE 011310
RWRCLE
OHIO REGIONAL WEATHER ROUNDUP
NATIONAL WEATHER SERVICE WILMINGTON, OH
800 AM EST SUN MAR 01 2015

NOTE: "FAIR" INDICATES FEW OR NO CLOUDS BELOW 12,000 FEET WITH NO
SIGNIFICANT WEATHER AND/OR OBSTRUCTIONS TO VISIBILITY.

OHZ001>008-015>018-024>027-034-035-043-044-011400-
   NORTHWEST OHIO

CITY           SKY/WX    TMP DP  RH WIND       PRES   REMARKS
DEFIANCE       LGT SNOW  18  14  84 CALM      30.40S VSB 1
FINDLAY        LGT SNOW  21  17  84 N5        30.37S VSB 3/4 WCI  15
TOLEDO EXPRESS LGT SNOW  18  14  86 CALM      30.39F VSB 1
TOLEDO EXEC    LGT SNOW  19  15  84 CALM      30.40F FOG
LIMA           LGT SNOW  23  20  88 CALM      30.36S VSB 3/4
$$

OHZ009>014-019>023-028>033-038-089-011400-
   NORTHEAST OHIO

CITY           SKY/WX    TMP DP  RH WIND       PRES   REMARKS
CLE-HOPKINS    SNOW      22  19  89 SE3       30.41F VSB 1/2
CLE-LAKEFRONT  LGT SNOW  22  19  89 SE5       30.39F VSB 1   WCI  16
CUY CO. ARPT   NOT AVBL
LORAIN-ELYRIA  SNOW      20  18  92 CALM      30.38F VSB 1/2
ASHTABULA      LGT SNOW  19  16  88 SE5       30.39F FOG     WCI  12
AKRON-CANTON   LGT SNOW  25  21  85 S7        30.36S VSB 1   WCI  17
WOOSTER        LGT SNOW  23  21  92 S7        30.36F FOG     WCI  15
MANSFIELD      LGT SNOW  25  23  92 S7        30.34F VSB 1   WCI  17
YOUNGSTOWN     LGT SNOW  21  18  88 SE3       30.36F VSB 3/4
$$

OHZ042-051>053-060>062-070>072-077>081-011400-
  SOUTHWEST OHIO

CITY           SKY/WX    TMP DP  RH WIND       PRES   REMARKS
CINC-COVINGTON LGT SNOW  30  25  80 S6        30.36S WCI  24
CINC-LUNKEN    CLOUDY    28  26  92 CALM      30.40F FOG
HAMILTON       LGT SNOW  29  27  92 SE3       30.39F FOG
DAYTON         LGT SNOW  28  27  96 SW6       30.37F VSB 3/4 WCI  22
WRIGHT-PAT AFB LGT SNOW  26  25  95 CALM      30.37F FOG
DAYTON GENERAL LGT SNOW  30  29  96 S6        30.36S VSB 3/4 WCI  24
WILMINGTON     LGT SNOW  29  25  85 S3        30.36S FOG
$$

OHZ036-037-039>041-045>050-054>059-063>069-073>076-082>088-011400-
  CENTRAL AND SOUTHEAST OHIO

CITY           SKY/WX    TMP DP  RH WIND       PRES   REMARKS
COLUMBUS       LGT SNOW  26  23  88 CALM      30.38F VSB 1
OSU AIRPORT    LGT SNOW  25  23  92 CALM      30.37F VSB 1
BOLTON FIELD   LGT SNOW  27  27 100 CALM      30.38F VSB 1
RICKENBACK AFB LGT SNOW  30  28  95 CALM      30.38F
NEWARK         LGT SNOW  26  24  92 E3        30.38F FOG
MARION         SNOW      25  22  88 S7        30.36F VSB 1/2 WCI  17
LANCASTER      LGT SNOW  31  29  92 SE3       30.39S VSB 1
ZANESVILLE     LGT SNOW  28  26  92 S5        30.39S VSB 1   WCI  23
NEW PHILLY     SNOW      25  21  85 CALM      30.40S VSB 1/2
$$



USA.gov is the U.S. government's official web portal to all federal, state and local government web resources and services.